Retour au catalogue

COSMOS 1275 DEB

ActifPO
NORAD 19853·DEBRIS·🇷🇺 Russia

Lancé Jun 4, 1981 depuis Plesetsk Cosmodrome

Loading…

Prochains Passages (prochaines 24 heures)

TLE

FraisSource: Space-Track

Époque: Sep 14, 2026, 19:27 UTC

1 19853U 81053MH  26257.81056398  .00000650  00000-0  70235-3 0  9996
2 19853  82.9920 198.7372 0122144 346.4663  41.3267 13.68742148706731

Suivez COSMOS 1275 DEB en temps réel avec AllMySat

Download on the App Store